Regional Weather Roundup
Issued by NWS State College, PA

Home | Current Version | Previous Version | Text Only | Print | Product List | Glossary On
Versions: 1 2 3 4 5 6 7 8 9 10 11 12 13 14 15 16 17 18 19 20 21 22 23 24 25 26 27 28 29 30 31 32 33 34 35 36 37 38 39 40 41 42 43 44 45 46 47 48 49 50
000
ASUS41 KCTP 271803
RWRCTP

REGIONAL WEATHER ROUNDUP
NATIONAL WEATHER SERVICE STATE COLLEGE PA
200 PM EDT FRI MAY 27 2016

Note: "fair" indicates few or no clouds below 12,000 feet with no
significant weather and/or obstructions to visibility.

* = STATION THAT DOES NOT REPORT PRECIPITATION /E.G. RAIN...SNOW...ETC/
    THUNDER OR FOG.

PAZ002>004-007>009-013>016-020>023-029>032-271900-
WESTERN PENNSYLVANIA

CITY           SKY/WX    TMP DP  RH WIND       PRES   REMARKS
ERIE           SUNNY     75  63  66 W12       30.04S
MEADVILLE      MOSUNNY   79  63  57 SW10G18   30.06S
FRANKLIN*      MOSUNNY   81  63  54 SW15      30.09S
NEW CASTLE     FAIR      83  62  49 SW9       30.06S
BEAVER COUNTY  MOSUNNY   82  63  51 S12G18    30.07
BUTLER*        MOSUNNY   82  64  54 SW12      30.09F
PITTSBURGH INT PTSUNNY   84  61  45 S10G18    30.07S
PITTSBURGH     MOSUNNY   83  61  47 SW10      30.07S
INDIANA*       MOSUNNY   82  64  54 SW9G17    30.11F
LATROBE        MOSUNNY   82  66  57 SW9       30.08F
WASHINGTON CO* SUNNY     82  64  54 SW9       30.08F
$$

PAZ004>006-010>012-017>019-024>028-033>037-041-042-045-046-049>053-271900-
CENTRAL PENNSYLVANIA

CITY           SKY/WX    TMP DP  RH WIND       PRES   REMARKS
BRADFORD       PTSUNNY   80  58  46 SW10G17   30.09S
DUBOIS         PTSUNNY   79  62  56 W13G18    30.08S
CLEARFIELD     MOSUNNY   83  62  49 S10       30.07F
JOHNSTOWN      CLOUDY    78  57  48 W10       30.13S
ALTOONA        MOSUNNY   85  62  46 CALM      30.09F
STATE COLLEGE  MOSUNNY   82  64  54 SW6       30.07S
WILLIAMSPORT   MOSUNNY   86  65  49 VRB6      30.01F
SELINSGROVE    MOSUNNY   87  65  47 SW8       30.03F
FT INDIANTOWN  PTSUNNY   85  66  52 S8        30.04F
CAPITAL CITY   MOSUNNY   87  67  51 VRB3      30.04F
HARRISBURG     PTSUNNY   87  66  49 S3        30.03F
YORK           SUNNY     86  68  54 SE5       30.05F
$$

PAZ038>040-043-044-047-048-054-055-060>062-067>071-271900-
EASTERN PENNSYLVANIA

CITY           SKY/WX    TMP DP  RH WIND       PRES   REMARKS
SCRANTON       SUNNY     86  65  49 SW9       30.03F
MOUNT POCONO   PTSUNNY   78  64  61 SW10      30.10S
ALLENTOWN      PTSUNNY   86  66  51 SW10      30.03F
QUAKERTOWN*    PTCLDY    86  66  51 SW7       30.06F
READING        MOSUNNY   87  65  47 S7        30.03F
LANCASTER      MOSUNNY   86  67  52 SW7       30.05F
COATESVILLE    PTCLDY    84  66  54 VRB6      30.08F
POTTSTOWN      PTSUNNY   85  65  51 SW9       30.06F
BLUE BELL      MOSUNNY   86  64  48 SW6       30.04F
DOYLESTOWN     MOSUNNY   84  62  47 VRB6      30.04F
WILLOW GROVE   NOT AVBL
NORTH PHILA    MOSUNNY   89  68  49 SW6       30.05F
PHILADELPHIA   MOSUNNY   88  65  46 SW12      30.05F
$$



USA.gov is the U.S. government's official web portal to all federal, state and local government web resources and services.